sat.trackr.live / text

‹ back to catalog

ONEWEB-0111

NORAD 47261 · 2020-100D

PAYLOAD ACTIVE UNKNOWN

§ Identity

Operator
Country
UK
Launch date
2020-12-18
Launch site
VOSTO
Launch vehicle
Mass (kg)
RCS (m²)

Purposes: comms

External: N2YO · Heavens-Above · Gunter

§ Orbital elements

Epoch: 2026-05-25T02:24:15.066432Z

Period
109.72 min
Inclination
87.8961°
Eccentricity
0.0001849
Mean motion
13.12443607 rev/d
Perigee alt
1,212.3 km
Apogee alt
1,215.1 km
Semi-major
7,591.9 km
B*
6.9113e-4
RAAN
355.2524°
Arg perigee
83.1140°
Mean anomaly
277.0198°
Rev number
26,153

§ Raw data

ONEWEB-01111 47261U 20100D   26145.10017438  .00000261  00000+0  69113-3 0  99962 47261  87.8961 355.2524 0001849  83.1140 277.0198 13.12443607261538

JSON: /api/v1/satellites/47261 · /tle

For live sub-satellite position, see the globe view (requires WebGL).

§ Visibility from observer

Set your observer location to see the next 7 days of passes ≥ 10°. The values pass through the URL so the page stays shareable.

No JS? Fill the form by hand. The geolocation button needs JavaScript.